017 
ASUS46 KSEW 270610
RWRWA 

WASHINGTON REGIONAL WEATHER ROUNDUP
NATIONAL WEATHER SERVICE SEATTLE WA
1100 PM PDT TUE OCT 26 2021

NOTE:"FAIR" INDICATES FEW OR NO CLOUDS BELOW 12,000 FEET WITH NO 
SIGNIFICANT WEATHER AND/OR OBSTRUCTIONS TO VISIBILITY.

WAZ507-509-555>559-270700-
SEATTLE, TACOMA, EVERETT, AND VICINITY
  
CITY           SKY/WX    TMP DP  RH WIND       PRES   REMARKS
EVERETT        CLOUDY    50  45  83 SW10      29.85R                  
6HR MIN TEMP:  49; 6HR MAX TEMP:  53;                                

BOEING FIELD   PTCLDY    51  45  79 SW8G18    29.87R                  
6HR MIN TEMP:  51; 6HR MAX TEMP:  55; 6HR PCP: TRACE;                

RENTON         PTCLDY    51  43  74 SW9       29.87R                  
6HR MIN TEMP:  51; 6HR MAX TEMP:  56; 6HR PCP:  0.21;                

SEATAC AIRPORT MOCLDY    49  44  83 SW17G31   29.87R                  
6HR MIN TEMP:  49; 6HR MAX TEMP:  54; 6HR PCP:  0.25;                

JBLM-MCCHORD   MOCLDY    49  47  94 SW12      29.89R                  
6HR MIN TEMP:  49; 6HR MAX TEMP:  54; 6HR PCP:  0.19;                

PUYALLUP       CLOUDY    50  48  93 VRB3G12   29.91R                  
BREMERTON      PTCLDY    48  46  93 SW14      29.86R                  
6HR MIN TEMP:  47; 6HR MAX TEMP:  53; 6HR PCP:  0.01;                

JBLM-FT LEWIS  NOT AVBL                                               
TACOMA NARROWS PTCLDY    48  48 100 SW10G23   29.88R                  
6HR MIN TEMP:  48; 6HR MAX TEMP:  53; 6HR PCP:  0.24;                

$$
 
WAZ001-503-506-510-514-515-270700-
NORTH INTERIOR
  
CITY           SKY/WX    TMP DP  RH WIND       PRES   REMARKS
BELLINGHAM     PTCLDY    50  44  80 S6        29.80R                  
6HR MIN TEMP:  49; 6HR MAX TEMP:  53; 6HR PCP:  0.01;                

FRIDAY HARBOR  MOCLDY    50  43  77 SW14G28   29.82R                  
6HR MIN TEMP:  49; 6HR MAX TEMP:  54; 6HR PCP:  0.02;                

EASTSOUND      PTCLDY    50  45  81 S10       29.79R                  
PORT ANGELES   CLOUDY    47  42  83 W7        29.83R                  
6HR MIN TEMP:  46; 6HR MAX TEMP:  55; 6HR PCP:  0.14;                

EDIZ HOOK      LGT RAIN  48  44  85 W14       29.83R                  
6HR MIN TEMP:  48; 6HR MAX TEMP:  55; 6HR PCP:  0.05;                

PORT TOWNSEND  MOCLDY    45  45 100 CALM      29.84R                  
NAS WHIDBEY    PTCLDY    51  41  68 W21G26    29.87R                  
6HR MIN TEMP:  51; 6HR MAX TEMP:  56; 6HR PCP:  0.04;                

ARLINGTON      PTCLDY    47  46  97 SE6       29.85R                  
6HR MIN TEMP:  47; 6HR MAX TEMP:  55;                                

BURLINGTON     CLOUDY    50  43  76 SW5       29.83R                  
$$
 
WAZ020-022-039-040-504-511-512-270700-
SOUTHWEST INTERIOR
  
CITY           SKY/WX    TMP DP  RH WIND       PRES   REMARKS
SHELTON        RAIN      47  44  90 W15G40    29.88R FOG              
6HR MIN TEMP:  48; 6HR MAX TEMP:  51; 6HR PCP:  0.27;                

OLYMPIA        PTCLDY    49  47  93 SW10      29.91R                  
6HR MIN TEMP:  49; 6HR MAX TEMP:  54; 6HR PCP:  0.22;                

CHEHALIS       CLOUDY    50  48  93 S6        29.93R                  
KELSO          LGT RAIN  51  50  96 CALM      29.97R                  
6HR MIN TEMP:  51; 6HR MAX TEMP:  55; 6HR PCP:  0.06;                

VANCOUVER      CLOUDY    52  50  93 CALM      29.97R                  
6HR MIN TEMP:  52; 6HR MAX TEMP:  56; 6HR PCP:  0.11;                

SCAPPOOSE, OR  PTCLDY    52  50  93 CALM      29.96R                  
6HR MIN TEMP:  52; 6HR MAX TEMP:  57; 6HR PCP:  0.02;                

PORTLAND, OR   LGT RAIN  53  50  89 W3        29.97R                  
6HR MIN TEMP:  53; 6HR MAX TEMP:  56; 6HR PCP:  0.15;                

$$
 
WAZ021-516-517-270700-
WASHINGTON COAST
  
CITY           SKY/WX    TMP DP  RH WIND       PRES   REMARKS
FORKS          CLOUDY    48  46  93 SW7       29.85R                  
6HR MIN TEMP:  46; 6HR MAX TEMP:  51; 6HR PCP:  0.08;                

HOQUIAM        CLOUDY    55  49  80 SW20      29.91R                  
6HR MIN TEMP:  53; 6HR MAX TEMP:  55; 6HR PCP:  0.10;                

ASTORIA, OR    LGT RAIN  54  49  83 SW14      29.95R                  
6HR MIN TEMP:  52; 6HR MAX TEMP:  56; 6HR PCP:  0.35;                

$$
 
WAZ019-023-024-040-567>569-270700-
CASCADE MOUNTAINS AND COLUMBIA GORGE
  
CITY           SKY/WX    TMP DP  RH WIND       PRES   REMARKS
STAMPEDE PASS  LGT RAIN  37  35  92 W8G22     29.80R VSB 1            
6HR MIN TEMP:  37; 6HR MAX TEMP:  39; 6HR PCP:  0.55;                

TROUTDALE, OR  LGT RAIN  55  51  86 CALM      29.96R                  
6HR MIN TEMP:  54; 6HR MAX TEMP:  56; 6HR PCP:  0.12;                

HOOD RIVER, OR NOT AVBL                                               
THE DALLES, OR PTCLDY    55  46  71 NW12      29.89S                  
6HR MIN TEMP:  53; 6HR MAX TEMP:  60;                                

$$

WAZ026-027-041>044-520-521-270700-
EAST SLOPES
  
CITY           SKY/WX    TMP DP  RH WIND       PRES   REMARKS
OMAK           CLEAR     51  39  63 S15       29.70S                  
6HR MIN TEMP:  50; 6HR MAX TEMP:  53; 6HR PCP: TRACE;                

WENATCHEE      LGT RAIN  48  40  73 NW8       29.76R                  
6HR MIN TEMP:  46; 6HR MAX TEMP:  54; 6HR PCP: TRACE;                

ELLENSBURG     CLOUDY    43  38  82 NE3       29.79S                  
6HR MIN TEMP:  42; 6HR MAX TEMP:  57; 6HR PCP: TRACE;                

YAKIMA         CLEAR     54  41  61 SW13G26   29.80S                  
6HR MIN TEMP:  50; 6HR MAX TEMP:  58;                                

SUNNYSIDE ARPT CLEAR     52  41  65 S10       29.85S                  
6HR MIN TEMP:  52; 6HR MAX TEMP:  61;                                

YAKIMA TC      FAIR      49  35  60 SW3       29.80R                  
6HR MIN TEMP:  49; 6HR MAX TEMP:  56;                                

$$

WAZ028-034-035-270700-
COLUMBIA BASIN
  
CITY           SKY/WX    TMP DP  RH WIND       PRES   REMARKS
EPHRATA        CLEAR     46  38  73 SW13      29.76R                  
6HR MIN TEMP:  44; 6HR MAX TEMP:  53;                                

MOSES LAKE     CLEAR     50  40  68 SW12      29.78R                  
6HR MIN TEMP:  50; 6HR MAX TEMP:  54;                                

PASCO          CLOUDY    58  41  53 S10       29.89R                  
6HR MIN TEMP:  56; 6HR MAX TEMP:  65; 6HR PCP: TRACE;                

RICHLAND ARPT  CLEAR     58  41  54 SW13G24   29.86S                  
6HR MIN TEMP:  56; 6HR MAX TEMP:  65;                                

HERMISTON, OR  CLOUDY    56  43  61 W7        29.91R                  
6HR MIN TEMP:  54; 6HR MAX TEMP:  63;                                

$$

WAZ036>038-270700-
NORTHEAST WASHINGTON
  
CITY           SKY/WX    TMP DP  RH WIND       PRES   REMARKS
SPOKANE GEIGER MOCLDY    47  38  71 SW22G29   29.78S                  
6HR MIN TEMP:  45; 6HR MAX TEMP:  47; 6HR PCP:  0.01;                

SPOKANE FELTS  MOCLDY    50  40  68 SW13G25   29.80R                  
6HR MIN TEMP:  48; 6HR MAX TEMP:  51; 6HR PCP: TRACE;                

FAIRCHILD AFB  PTCLDY    44  43  96 S23G31    29.77R                  
6HR MIN TEMP:  44; 6HR MAX TEMP:  45; 6HR PCP:  0.01;                

COEURDALENE,ID CLOUDY    48  41  76 W5        29.82R                  
6HR MIN TEMP:  45; 6HR MAX TEMP:  48;                                

DEER PARK      MOCLDY    46  39  76 SW9       29.79R                  
6HR MIN TEMP:  43; 6HR MAX TEMP:  48; 6HR PCP:  0.08;                

$$

WAZ029>033-270700-
SOUTHEAST WASHINGTON
  
CITY           SKY/WX    TMP DP  RH WIND       PRES   REMARKS
PULLMAN        MOCLDY    47  40  76 SW17G25   29.88S                  
6HR MIN TEMP:  45; 6HR MAX TEMP:  48; 6HR PCP:  0.02;                

LEWISTON, ID   PTCLDY    53  41  63 CALM      29.89R                  
6HR MIN TEMP:  51; 6HR MAX TEMP:  55; 6HR PCP: TRACE;                

WALLA WALLA    CLOUDY    53  41  63 S9        29.90S                  
6HR MIN TEMP:  51; 6HR MAX TEMP:  58; 6HR PCP: TRACE;                

PENDLETON, OR  CLOUDY    53  39  59 S3        29.91R                  
6HR MIN TEMP:  50; 6HR MAX TEMP:  59;                                

$$